This is the latest recevied weather packets stored in our database for station/object W0DXV. If no packets are shown the sender has not sent any weather packets the latest 10 day(s).
| Time | Temp. | Humidity | Pressure | Rain* | Wind** | Luminosity | Snow |
|---|---|---|---|---|---|---|---|
| 1777914574 | 24.44° C | 35% | 1011.9 hPa | 0 mm | - | 766 W/m² | - |
| 1777914270 | 24.44° C | 35% | 1011.9 hPa | 0 mm | - | 761 W/m² | - |
| 1777913967 | 24.44° C | 37% | 1012.1 hPa | 0 mm | - | 763 W/m² | - |
| 1777913664 | 24.44° C | 36% | 1012 hPa | 0 mm | - | 758 W/m² | - |
| 1777913361 | 24.44° C | 33% | 1012 hPa | 0 mm | - | 757 W/m² | - |
| 1777913057 | 24.44° C | 37% | 1012 hPa | 0 mm | - | 758 W/m² | - |
| 1777912753 | 23.89° C | 37% | 1012.1 hPa | 0 mm | - | 753 W/m² | - |
| 1777912449 | 23.33° C | 37% | 1012.1 hPa | 0 mm | - | 753 W/m² | - |
| 1777912146 | 23.33° C | 40% | 1012.2 hPa | 0 mm | - | 748 W/m² | - |
| 1777911842 | 22.78° C | 37% | 1012.3 hPa | 0 mm | - | 741 W/m² | - |
| 1777911539 | 23.33° C | 40% | 1012.7 hPa | 0 mm | - | 737 W/m² | - |
| 1777911235 | 22.78° C | 39% | 1012.8 hPa | 0 mm | - | 725 W/m² | - |
| 1777910932 | 23.89° C | 36% | 1013 hPa | 0 mm | - | 694 W/m² | - |
| 1777910630 | 23.89° C | 37% | 1013 hPa | 0 mm | - | 720 W/m² | - |
| 1777910326 | 23.33° C | 39% | 1013.3 hPa | 0 mm | - | 713 W/m² | - |
| 1777910023 | 22.78° C | 38% | 1013.3 hPa | 0 mm | - | 706 W/m² | - |
| 1777909720 | 22.78° C | 42% | 1013.4 hPa | 0 mm | - | 701 W/m² | - |
| 1777909418 | 22.22° C | 40% | 1013.4 hPa | 0 mm | - | 694 W/m² | - |
| 1777909116 | 22.22° C | 38% | 1013.3 hPa | 0 mm | - | 688 W/m² | - |
| 1777908813 | 21.67° C | 43% | 1013.3 hPa | 0 mm | - | 681 W/m² | - |
| 1777908509 | 21.67° C | 42% | 1013.4 hPa | 0 mm | - | 672 W/m² | - |
| 1777908207 | 21.11° C | 44% | 1013.2 hPa | 0 mm | - | 665 W/m² | - |
| 1777907903 | 21.67° C | 42% | 1013.3 hPa | 0 mm | - | 656 W/m² | - |
| 1777907598 | 21.11° C | 43% | 1013.3 hPa | 0 mm | - | 648 W/m² | - |
| 1777907294 | 21.11° C | 42% | 1013.4 hPa | 0 mm | - | 637 W/m² | - |
* Rain latest hour (hover to see other rain measurements)
** Current wind speed in m/s (hover to see current wind gust speed)